| time (UTC) | temp F | wind direction | speed knots | gust knots | rain 1hr in | rain 24hr in | rain mn in | humidity % | barometer mb |
| 20260509151508 | 52 | 84 | 2.6 | 9.6 | 0.00 | 0.25 | 0.00 | 78 | 1022.9 |
| 20260509150908 | 51 | 85 | 5.2 | 7.8 | 0.00 | 0.25 | 0.00 | 79 | 1022.6 |
| 20260509150607 | 51 | 85 | 3.5 | 7.0 | 0.00 | 0.25 | 0.00 | 80 | 1022.8 |
| 20260509150307 | 51 | 85 | 3.5 | 7.0 | 0.00 | 0.25 | 0.00 | 79 | 1022.8 |
| 20260509150010 | 51 | 89 | 3.5 | 7.0 | 0.00 | 0.25 | 0.00 | 79 | 1022.7 |
| 20260509145707 | 52 | 87 | 2.6 | 7.0 | 0.00 | 0.25 | 0.25 | 79 | 1022.8 |
| 20260509145107 | 52 | 78 | 3.5 | 7.0 | 0.00 | 0.25 | 0.25 | 79 | 1023.0 |
| 20260509144507 | 52 | 80 | 1.7 | 7.8 | 0.00 | 0.25 | 0.25 | 79 | 1022.7 |
| 20260509144207 | 52 | 89 | 1.7 | 7.8 | 0.00 | 0.25 | 0.25 | 80 | 1022.9 |
| 20260509143906 | 52 | 90 | 2.6 | 7.8 | 0.00 | 0.25 | 0.25 | 79 | 1022.8 |
| 20260509143608 | 52 | 90 | 3.5 | 7.8 | 0.00 | 0.25 | 0.25 | 79 | 1022.7 |
| 20260509143307 | 52 | 86 | 4.3 | 7.8 | 0.00 | 0.25 | 0.25 | 79 | 1022.7 |
| 20260509142407 | 52 | 88 | 2.6 | 6.1 | 0.00 | 0.25 | 0.25 | 80 | 1022.9 |
| 20260509141807 | 52 | 85 | 2.6 | 6.1 | 0.00 | 0.25 | 0.25 | 79 | 1022.8 |
| 20260509141506 | 52 | 87 | 3.5 | 6.1 | 0.00 | 0.25 | 0.25 | 80 | 1022.5 |
| 20260509141207 | 52 | 83 | 3.5 | 6.1 | 0.00 | 0.25 | 0.25 | 80 | 1022.6 |
| 20260509140907 | 52 | 77 | 3.5 | 7.0 | 0.00 | 0.25 | 0.25 | 80 | 1022.8 |
| 20260509140307 | 52 | 81 | 3.5 | 7.0 | 0.00 | 0.25 | 0.25 | 81 | 1022.5 |
| 20260509140007 | 52 | 86 | 3.5 | 7.0 | 0.00 | 0.25 | 0.25 | 81 | 1022.4 |
| 20260509135706 | 52 | 90 | 3.5 | 9.6 | 0.00 | 0.25 | 0.25 | 81 | 1022.7 |
| 20260509135407 | 52 | 93 | 3.5 | 9.6 | 0.00 | 0.25 | 0.25 | 81 | 1022.7 |
| 20260509135107 | 52 | 94 | 4.3 | 9.6 | 0.00 | 0.25 | 0.25 | 80 | 1022.6 |
| 20260509134807 | 52 | 87 | 2.6 | 5.2 | 0.00 | 0.25 | 0.25 | 81 | 1022.6 |
| 20260509134506 | 52 | 89 | 3.5 | 5.2 | 0.00 | 0.25 | 0.25 | 81 | 1022.6 |
| 20260509134207 | 53 | 84 | 2.6 | 5.2 | 0.00 | 0.25 | 0.25 | 81 | 1022.7 |
| 20260509133907 | 53 | 90 | 2.6 | 5.2 | 0.00 | 0.25 | 0.25 | 81 | 1022.7 |
| 20260509133608 | 53 | 85 | 1.7 | 6.1 | 0.00 | 0.25 | 0.25 | 81 | 1022.7 |
| 20260509133307 | 53 | 85 | 2.6 | 6.1 | 0.00 | 0.25 | 0.25 | 80 | 1022.5 |
| 20260509133007 | 53 | 82 | 3.5 | 6.1 | 0.00 | 0.25 | 0.25 | 80 | 1022.6 |
| 20260509132707 | 53 | 82 | 3.5 | 6.1 | 0.00 | 0.25 | 0.25 | 80 | 1022.7 |
| 20260509132408 | 53 | 79 | 3.5 | 7.0 | 0.00 | 0.25 | 0.25 | 81 | 1022.6 |
| 20260509132107 | 53 | 82 | 1.7 | 7.0 | 0.00 | 0.25 | 0.25 | 81 | 1022.7 |
| 20260509131806 | 53 | 84 | 3.5 | 7.0 | 0.00 | 0.25 | 0.25 | 81 | 1022.5 |
| 20260509131207 | 53 | 93 | 3.5 | 7.0 | 0.00 | 0.25 | 0.25 | 82 | 1022.6 |
| 20260509130907 | 53 | 88 | 3.5 | 7.0 | 0.00 | 0.25 | 0.25 | 81 | 1022.6 |
| 20260509130607 | 53 | 83 | 3.5 | 7.0 | 0.00 | 0.25 | 0.25 | 81 | 1022.4 |
| 20260509130307 | 53 | 75 | 1.7 | 7.0 | 0.00 | 0.25 | 0.25 | 82 | 1022.4 |
| 20260509130007 | 53 | 80 | 5.2 | 7.0 | 0.00 | 0.25 | 0.25 | 81 | 1022.6 |
| 20260509125707 | 53 | 73 | 3.5 | 7.0 | 0.00 | 0.25 | 0.25 | 81 | 1022.5 |
| 20260509125107 | 53 | 64 | 3.5 | 7.8 | 0.00 | 0.25 | 0.25 | 81 | 1022.6 |
| 20260509124807 | 54 | 69 | 1.7 | 7.8 | 0.00 | 0.25 | 0.25 | 81 | 1022.6 |
| 20260509123907 | 54 | 72 | 3.5 | 7.8 | 0.00 | 0.25 | 0.25 | 80 | 1022.2 |
| 20260509123606 | 54 | 75 | 3.5 | 7.0 | 0.00 | 0.25 | 0.25 | 79 | 1022.6 |
| 20260509123307 | 54 | 86 | 2.6 | 7.0 | 0.00 | 0.25 | 0.25 | 79 | 1022.4 |
| 20260509123007 | 54 | 87 | 2.6 | 7.0 | 0.00 | 0.25 | 0.25 | 79 | 1022.4 |
| 20260509122707 | 54 | 80 | 2.6 | 6.1 | 0.00 | 0.25 | 0.25 | 80 | 1022.2 |
| 20260509122406 | 54 | 69 | 3.5 | 5.2 | 0.00 | 0.25 | 0.25 | 80 | 1022.2 |
| 20260509121807 | 54 | 70 | 1.7 | 6.1 | 0.00 | 0.25 | 0.25 | 80 | 1022.2 |
| 20260509121207 | 54 | 73 | 1.7 | 6.1 | 0.00 | 0.25 | 0.25 | 80 | 1022.4 |
| 20260509120907 | 54 | 67 | 2.6 | 5.2 | 0.00 | 0.25 | 0.25 | 80 | 1022.5 |
| 20260509120306 | 55 | 63 | 2.6 | 5.2 | 0.00 | 0.25 | 0.25 | 79 | 1022.1 |
| 20260509115707 | 55 | 79 | 1.7 | 3.5 | 0.00 | 0.25 | 0.25 | 80 | 1022.3 |
| 20260509115407 | 55 | 85 | 1.7 | 3.5 | 0.00 | 0.25 | 0.25 | 79 | 1022.3 |
| 20260509115107 | 55 | 85 | 2.6 | 3.5 | 0.00 | 0.25 | 0.25 | 80 | 1022.1 |
| 20260509114806 | 55 | 80 | 1.7 | 5.2 | 0.00 | 0.25 | 0.25 | 81 | 1022.1 |
| 20260509114506 | 55 | 70 | 1.7 | 5.2 | 0.00 | 0.25 | 0.25 | 81 | 1022.1 |
| 20260509114207 | 55 | 72 | 1.7 | 5.2 | 0.00 | 0.25 | 0.25 | 81 | 1022.0 |
| 20260509113907 | 55 | 75 | 1.7 | 3.5 | 0.00 | 0.25 | 0.25 | 82 | 1022.1 |
| 20260509113606 | 55 | 83 | 1.7 | 3.5 | 0.00 | 0.25 | 0.25 | 81 | 1021.9 |
| 20260509113308 | 55 | 81 | 1.7 | 3.5 | 0.00 | 0.25 | 0.25 | 82 | 1021.8 |
| 20260509113007 | 55 | 82 | 1.7 | 3.5 | 0.00 | 0.25 | 0.25 | 82 | 1021.8 |
| 20260509112708 | 55 | 77 | 1.7 | 3.5 | 0.00 | 0.25 | 0.25 | 82 | 1021.8 |
| 20260509112407 | 55 | 75 | 1.7 | 3.5 | 0.00 | 0.25 | 0.25 | 82 | 1021.8 |
| 20260509112107 | 55 | 73 | 1.7 | 3.5 | 0.00 | 0.25 | 0.25 | 83 | 1021.7 |
| 20260509111807 | 55 | 79 | 1.7 | 1.7 | 0.00 | 0.25 | 0.25 | 83 | 1021.7 |
| 20260509111206 | 56 | 71 | 0.0 | 1.7 | 0.00 | 0.25 | 0.25 | 83 | 1021.4 |
| 20260509110906 | 56 | 71 | 0.9 | 1.7 | 0.00 | 0.25 | 0.25 | 83 | 1021.7 |
| 20260509110307 | 56 | 80 | 0.0 | 1.7 | 0.00 | 0.25 | 0.25 | 82 | 1021.4 |
| 20260509110007 | 56 | 90 | 1.7 | 1.7 | 0.00 | 0.25 | 0.25 | 81 | 1021.4 |
| 20260509105708 | 56 | 95 | 0.0 | 1.7 | 0.00 | 0.25 | 0.25 | 81 | 1021.5 |
| 20260509105407 | 57 | 94 | 0.9 | 1.7 | 0.00 | 0.25 | 0.25 | 79 | 1021.5 |
| 20260509105107 | 57 | 97 | 0.0 | 3.5 | 0.00 | 0.25 | 0.25 | 78 | 1021.4 |
| 20260509104507 | 56 | 128 | 1.7 | 3.5 | 0.00 | 0.25 | 0.25 | 78 | 1021.3 |
| 20260509104207 | 57 | 136 | 0.9 | 3.5 | 0.00 | 0.25 | 0.25 | 80 | 1021.4 |
| 20260509103907 | 57 | 132 | 1.7 | 3.5 | 0.00 | 0.25 | 0.25 | 79 | 1021.3 |
| 20260509103607 | 57 | 122 | 1.7 | 3.5 | 0.00 | 0.25 | 0.25 | 79 | 1021.0 |
| 20260509103307 | 57 | 121 | 0.9 | 3.5 | 0.00 | 0.25 | 0.25 | 79 | 1021.1 |
| 20260509103007 | 57 | 134 | 1.7 | 3.5 | 0.00 | 0.25 | 0.25 | 78 | 1021.1 |
| 20260509102706 | 57 | 140 | 1.7 | 3.5 | 0.00 | 0.25 | 0.25 | 79 | 1021.1 |
| 20260509102407 | 57 | 147 | 1.7 | 3.5 | 0.00 | 0.25 | 0.25 | 78 | 1021.3 |
| 20260509102107 | 57 | 138 | 2.6 | 3.5 | 0.00 | 0.25 | 0.25 | 78 | 1021.1 |
| 20260509101806 | 57 | 153 | 1.7 | 1.7 | 0.00 | 0.25 | 0.25 | 78 | 1020.8 |
| 20260509101506 | 57 | 158 | 0.0 | 1.7 | 0.00 | 0.25 | 0.25 | 78 | 1020.9 |
| 20260509101208 | 58 | 158 | 0.0 | 1.7 | 0.00 | 0.25 | 0.25 | 77 | 1020.9 |
| 20260509100907 | 58 | 158 | 0.0 | 1.7 | 0.00 | 0.25 | 0.25 | 75 | 1021.0 |
| 20260509100607 | 58 | 163 | 0.9 | 1.7 | 0.00 | 0.25 | 0.25 | 75 | 1020.8 |
| 20260509100306 | 58 | 164 | 0.9 | 1.7 | 0.00 | 0.25 | 0.25 | 74 | 1020.9 |
| 20260509100007 | 58 | 182 | 0.0 | 1.7 | 0.00 | 0.25 | 0.25 | 73 | 1020.7 |
| 20260509095407 | 59 | 230 | 0.0 | 5.2 | 0.00 | 0.25 | 0.25 | 72 | 1020.5 |
| 20260509095106 | 59 | 224 | 1.7 | 5.2 | 0.00 | 0.25 | 0.25 | 71 | 1020.6 |
| 20260509094806 | 59 | 223 | 0.0 | 5.2 | 0.00 | 0.25 | 0.25 | 69 | 1020.3 |
| 20260509094507 | 60 | 208 | 1.7 | 5.2 | 0.00 | 0.25 | 0.25 | 69 | 1020.5 |
| 20260509094207 | 60 | 216 | 0.0 | 3.5 | 0.00 | 0.25 | 0.25 | 68 | 1020.4 |
| 20260509093907 | 60 | 195 | 1.7 | 5.2 | 0.00 | 0.25 | 0.25 | 66 | 1020.4 |
| 20260509093606 | 60 | 187 | 1.7 | 5.2 | 0.00 | 0.25 | 0.25 | 67 | 1020.4 |
| 20260509093306 | 61 | 206 | 0.9 | 5.2 | 0.00 | 0.25 | 0.25 | 66 | 1020.2 |
| 20260509093007 | 61 | 214 | 1.7 | 5.2 | 0.00 | 0.25 | 0.25 | 65 | 1020.4 |
| 20260509092707 | 61 | 233 | 3.5 | 5.2 | 0.00 | 0.25 | 0.25 | 64 | 1020.5 |
| 20260509092406 | 62 | 238 | 2.6 | 3.5 | 0.00 | 0.25 | 0.25 | 65 | 1020.2 |
| 20260509092107 | 62 | 213 | 1.7 | 5.2 | 0.00 | 0.25 | 0.25 | 64 | 1020.4 |
| 20260509091807 | 62 | 203 | 1.7 | 5.2 | 0.00 | 0.25 | 0.25 | 64 | 1020.4 |
| 20260509091506 | 62 | 215 | 1.7 | 5.2 | 0.00 | 0.25 | 0.25 | 62 | 1020.3 |
| 20260509091207 | 62 | 213 | 3.5 | 5.2 | 0.00 | 0.25 | 0.25 | 62 | 1020.2 |
| 20260509090907 | 63 | 272 | 1.7 | 3.5 | 0.00 | 0.26 | 0.25 | 62 | 1020.3 |
| 20260509090607 | 63 | 174 | 1.7 | 3.5 | 0.00 | 0.26 | 0.25 | 61 | 1020.3 |
| 20260509090307 | 63 | 176 | 0.9 | 5.2 | 0.00 | 0.26 | 0.25 | 60 | 1020.3 |
| 20260509085707 | 63 | 212 | 1.7 | 6.1 | 0.00 | 0.26 | 0.25 | 60 | 1020.2 |
| 20260509085407 | 63 | 239 | 1.7 | 6.1 | 0.00 | 0.26 | 0.25 | 60 | 1020.2 |
| 20260509084807 | 64 | 255 | 1.7 | 6.1 | 0.00 | 0.26 | 0.25 | 61 | 1020.3 |
| 20260509084507 | 64 | 270 | 3.5 | 6.1 | 0.00 | 0.26 | 0.25 | 60 | 1020.1 |
| 20260509084208 | 64 | 208 | 1.7 | 7.0 | 0.00 | 0.26 | 0.25 | 60 | 1020.2 |
| 20260509083907 | 64 | 185 | 2.6 | 7.0 | 0.00 | 0.26 | 0.25 | 62 | 1020.3 |
| 20260509083607 | 64 | 178 | 2.6 | 7.0 | 0.00 | 0.26 | 0.25 | 58 | 1020.0 |
| 20260509083306 | 64 | 176 | 3.5 | 7.0 | 0.00 | 0.26 | 0.25 | 59 | 1019.9 |
| 20260509083007 | 63 | 172 | 2.6 | 7.8 | 0.00 | 0.26 | 0.25 | 61 | 1020.0 |
| 20260509082407 | 64 | 185 | 3.5 | 7.8 | 0.00 | 0.26 | 0.25 | 62 | 1019.8 |
| 20260509082107 | 64 | 223 | 4.3 | 7.8 | 0.00 | 0.26 | 0.25 | 60 | 1019.6 |
| 20260509081507 | 64 | 211 | 1.7 | 7.0 | 0.00 | 0.26 | 0.25 | 60 | 1019.8 |
| 20260509080906 | 64 | 192 | 4.3 | 7.0 | 0.00 | 0.26 | 0.25 | 59 | 1019.7 |
| 20260509080607 | 64 | 185 | 1.7 | 7.0 | 0.00 | 0.26 | 0.25 | 59 | 1019.9 |
| 20260509080307 | 64 | 185 | 2.6 | 7.0 | 0.00 | 0.26 | 0.25 | 60 | 1019.6 |
| 20260509080007 | 64 | 183 | 4.3 | 7.0 | 0.00 | 0.26 | 0.25 | 58 | 1019.6 |
| 20260509075707 | 65 | 164 | 2.6 | 7.0 | 0.00 | 0.26 | 0.25 | 59 | 1019.5 |
| 20260509075407 | 65 | 172 | 2.6 | 7.0 | 0.00 | 0.26 | 0.25 | 61 | 1019.5 |
| 20260509075107 | 65 | 176 | 3.5 | 7.0 | 0.00 | 0.26 | 0.25 | 61 | 1019.3 |
| 20260509074507 | 65 | 173 | 2.6 | 7.8 | 0.00 | 0.26 | 0.25 | 60 | 1019.6 |
| 20260509074207 | 65 | 188 | 3.5 | 7.8 | 0.00 | 0.26 | 0.25 | 61 | 1019.3 |
| 20260509073906 | 65 | 246 | 3.5 | 7.8 | 0.00 | 0.26 | 0.25 | 58 | 1019.3 |
| 20260509073306 | 66 | 299 | 3.5 | 7.0 | 0.00 | 0.26 | 0.25 | 60 | 1019.3 |
| 20260509073008 | 66 | 201 | 1.7 | 7.0 | 0.00 | 0.26 | 0.25 | 61 | 1019.0 |
| 20260509072406 | 64 | 173 | 1.7 | 9.6 | 0.00 | 0.26 | 0.25 | 63 | 1019.2 |
| 20260509072106 | 64 | 156 | 3.5 | 9.6 | 0.00 | 0.26 | 0.25 | 61 | 1019.2 |
| 20260509071506 | 65 | 160 | 3.5 | 7.8 | 0.00 | 0.26 | 0.25 | 63 | 1018.8 |
| 20260509071207 | 65 | 176 | 4.3 | 7.8 | 0.00 | 0.26 | 0.25 | 61 | 1019.0 |
| 20260509070907 | 66 | 246 | 3.5 | 9.6 | 0.00 | 0.26 | 0.25 | 55 | 1019.1 |
| 20260509070607 | 65 | 227 | 0.9 | 9.6 | 0.00 | 0.26 | 0.25 | 61 | 1019.0 |
| 20260509070306 | 66 | 202 | 2.6 | 9.6 | 0.00 | 0.26 | 0.25 | 59 | 1019.0 |
| 20260509070006 | 66 | 200 | 5.2 | 9.6 | 0.00 | 0.26 | 0.25 | 60 | 1018.9 |
| 20260509065708 | 66 | 188 | 3.5 | 9.6 | 0.00 | 0.26 | 0.25 | 61 | 1018.9 |
| 20260509065107 | 65 | 177 | 5.2 | 9.6 | 0.00 | 0.26 | 0.25 | 57 | 1018.9 |
| 20260509064507 | 65 | 175 | 4.3 | 9.6 | 0.00 | 0.26 | 0.25 | 63 | 1019.0 |
| 20260509064208 | 65 | 171 | 5.2 | 9.6 | 0.00 | 0.26 | 0.25 | 61 | 1019.0 |
| 20260509063906 | 65 | 186 | 2.6 | 9.6 | 0.00 | 0.26 | 0.25 | 61 | 1018.9 |
| 20260509063606 | 66 | 115 | 7.0 | 9.6 | 0.00 | 0.26 | 0.25 | 61 | 1019.1 |
| 20260509063307 | 67 | 125 | 4.3 | 9.6 | 0.00 | 0.26 | 0.25 | 61 | 1018.9 |
| 20260509063007 | 66 | 117 | 3.5 | 9.6 | 0.00 | 0.26 | 0.25 | 59 | 1019.1 |
| 20260509062707 | 66 | 162 | 4.3 | 9.6 | 0.00 | 0.26 | 0.25 | 62 | 1019.1 |
| 20260509062406 | 67 | 259 | 3.5 | 7.8 | 0.00 | 0.26 | 0.25 | 58 | 1019.1 |
| 20260509062107 | 67 | 283 | 1.7 | 7.8 | 0.00 | 0.26 | 0.25 | 57 | 1019.0 |
| 20260509061806 | 67 | 265 | 1.7 | 7.8 | 0.00 | 0.26 | 0.25 | 57 | 1018.9 |
| 20260509061508 | 67 | 279 | 1.7 | 6.1 | 0.00 | 0.26 | 0.25 | 58 | 1018.7 |
| 20260509061207 | 68 | 282 | 1.7 | 6.1 | 0.00 | 0.26 | 0.25 | 56 | 1019.0 |
| 20260509060906 | 67 | 304 | 0.0 | 3.5 | 0.00 | 0.26 | 0.25 | 58 | 1018.9 |
| 20260509055708 | 67 | 186 | 1.7 | 7.8 | 0.00 | 0.26 | 0.25 | 57 | 1019.1 |
| 20260509055406 | 66 | 167 | 0.9 | 7.8 | 0.00 | 0.26 | 0.25 | 58 | 1019.0 |
| 20260509054808 | 66 | 179 | 6.1 | 9.6 | 0.00 | 0.26 | 0.25 | 59 | 1019.0 |
| 20260509054207 | 67 | 221 | 1.7 | 7.8 | 0.00 | 0.26 | 0.25 | 54 | 1019.1 |
| 20260509053906 | 67 | 189 | 0.9 | 7.8 | 0.00 | 0.26 | 0.25 | 53 | 1019.0 |
| 20260509053607 | 67 | 197 | 3.5 | 7.8 | 0.00 | 0.26 | 0.25 | 54 | 1019.0 |
| 20260509053007 | 66 | 298 | 3.5 | 6.1 | 0.00 | 0.26 | 0.25 | 56 | 1019.0 |
| 20260509052107 | 67 | 138 | 1.7 | 7.0 | 0.00 | 0.26 | 0.25 | 59 | 1018.9 |
| 20260509051807 | 68 | 166 | 1.7 | 7.0 | 0.00 | 0.26 | 0.25 | 57 | 1019.0 |
| 20260509051506 | 67 | 184 | 3.5 | 7.0 | 0.00 | 0.26 | 0.25 | 59 | 1018.9 |
| 20260509051207 | 69 | 203 | 3.5 | 6.1 | 0.00 | 0.26 | 0.25 | 54 | 1019.1 |
| 20260509050906 | 68 | 270 | 1.7 | 5.2 | 0.00 | 0.26 | 0.25 | 54 | 1019.2 |
| 20260509050606 | 68 | 267 | 1.7 | 3.5 | 0.00 | 0.26 | 0.25 | 55 | 1019.1 |
| 20260509050307 | 69 | 166 | 1.7 | 3.5 | 0.00 | 0.26 | 0.25 | 46 | 1019.3 |
| 20260509050008 | 69 | 235 | 1.7 | 3.5 | 0.00 | 0.26 | 0.25 | 55 | 1019.1 |
| 20260509045706 | 69 | 261 | 1.7 | 3.5 | 0.00 | 0.26 | 0.25 | 54 | 1019.3 |
| 20260509045408 | 69 | 259 | 1.7 | 7.8 | 0.00 | 0.26 | 0.25 | 52 | 1019.4 |
| 20260509045106 | 68 | 238 | 0.9 | 7.8 | 0.00 | 0.26 | 0.25 | 52 | 1019.4 |
| 20260509044807 | 68 | 146 | 1.7 | 7.8 | 0.00 | 0.26 | 0.25 | 54 | 1019.3 |
| 20260509044506 | 67 | 218 | 1.7 | 3.5 | 0.00 | 0.26 | 0.25 | 56 | 1019.5 |
| 20260509044206 | 66 | 171 | 1.7 | 7.8 | 0.00 | 0.26 | 0.25 | 53 | 1019.7 |
| 20260509043906 | 67 | 178 | 2.6 | 7.8 | 0.00 | 0.26 | 0.25 | 51 | 1019.4 |
| 20260509043608 | 66 | 171 | 1.7 | 7.8 | 0.00 | 0.26 | 0.25 | 60 | 1019.6 |
| 20260509043308 | 66 | 163 | 2.6 | 7.8 | 0.00 | 0.26 | 0.25 | 55 | 1019.8 |
| 20260509043007 | 66 | 179 | 3.5 | 9.6 | 0.00 | 0.26 | 0.25 | 52 | 1019.6 |
| 20260509042706 | 67 | 206 | 3.5 | 9.6 | 0.00 | 0.26 | 0.25 | 53 | 1019.8 |
| 20260509042406 | 67 | 223 | 1.7 | 9.6 | 0.00 | 0.26 | 0.25 | 55 | 1020.0 |
| 20260509042107 | 67 | 220 | 2.6 | 11.3 | 0.00 | 0.26 | 0.25 | 57 | 1019.9 |
| 20260509041506 | 65 | 275 | 4.3 | 11.3 | 0.00 | 0.26 | 0.25 | 60 | 1019.8 |
| 20260509041207 | 67 | 204 | 0.9 | 7.8 | 0.00 | 0.26 | 0.25 | 60 | 1020.0 |
| 20260509040907 | 67 | 182 | 1.7 | 7.8 | 0.00 | 0.26 | 0.25 | 60 | 1019.6 |
| 20260509040607 | 65 | 158 | 1.7 | 7.8 | 0.00 | 0.26 | 0.25 | 62 | 1019.9 |
| 20260509040307 | 65 | 159 | 3.5 | 7.8 | 0.00 | 0.26 | 0.25 | 59 | 1020.0 |
| 20260509035706 | 66 | 171 | 5.2 | 7.8 | 0.00 | 0.26 | 0.25 | 61 | 1019.8 |
| 20260509035407 | 65 | 206 | 1.7 | 9.6 | 0.00 | 0.26 | 0.25 | 60 | 1020.1 |
| 20260509035106 | 66 | 202 | 2.6 | 9.6 | 0.00 | 0.26 | 0.25 | 52 | 1019.8 |
| 20260509034806 | 65 | 200 | 4.3 | 9.6 | 0.00 | 0.26 | 0.25 | 61 | 1019.9 |
| 20260509034507 | 65 | 174 | 4.3 | 9.6 | 0.00 | 0.26 | 0.25 | 59 | 1019.6 |
| 20260509034206 | 66 | 192 | 3.5 | 11.3 | 0.00 | 0.26 | 0.25 | 58 | 1019.9 |
| 20260509033907 | 67 | 237 | 2.6 | 11.3 | 0.00 | 0.26 | 0.25 | 58 | 1019.8 |
| 20260509033608 | 66 | 260 | 1.7 | 11.3 | 0.00 | 0.26 | 0.25 | 62 | 1019.7 |
| 20260509033306 | 65 | 289 | 7.0 | 9.6 | 0.00 | 0.26 | 0.25 | 65 | 1020.0 |
| 20260509033006 | 65 | 262 | 1.7 | 6.1 | 0.00 | 0.26 | 0.25 | 59 | 1019.8 |
| 20260509032706 | 66 | 215 | 1.7 | 6.1 | 0.00 | 0.26 | 0.25 | 58 | 1020.1 |
| 20260509032407 | 66 | 213 | 1.7 | 9.6 | 0.00 | 0.26 | 0.25 | 53 | 1019.8 |
| 20260509031508 | 64 | 259 | 1.7 | 9.6 | 0.00 | 0.26 | 0.25 | 64 | 1019.8 |
| 20260509031206 | 63 | 255 | 1.7 | 6.1 | 0.00 | 0.26 | 0.25 | 66 | 1020.1 |
| 20260509030906 | 65 | 293 | 2.6 | 6.1 | 0.00 | 0.26 | 0.25 | 60 | 1020.0 |
| 20260509030006 | 65 | 205 | 0.0 | 7.0 | 0.00 | 0.26 | 0.25 | 56 | 1020.2 |
| 20260509025707 | 63 | 174 | 1.7 | 7.0 | 0.00 | 0.26 | 0.25 | 64 | 1020.2 |
| 20260509025407 | 63 | 164 | 2.6 | 7.0 | 0.00 | 0.26 | 0.25 | 64 | 1020.3 |
| 20260509025108 | 63 | 162 | 3.5 | 7.0 | 0.00 | 0.26 | 0.25 | 64 | 1020.3 |
| 20260509024807 | 64 | 160 | 4.3 | 7.0 | 0.00 | 0.26 | 0.25 | 60 | 1020.3 |
| 20260509024507 | 64 | 187 | 1.7 | 3.5 | 0.00 | 0.26 | 0.25 | 61 | 1020.1 |
| 20260509024207 | 65 | 305 | 1.7 | 5.2 | 0.00 | 0.26 | 0.25 | 59 | 1020.3 |
| 20260509023906 | 66 | 289 | 1.7 | 5.2 | 0.00 | 0.26 | 0.25 | 60 | 1020.2 |
| 20260509023606 | 66 | 256 | 0.9 | 5.2 | 0.00 | 0.26 | 0.25 | 56 | 1020.2 |
| 20260509023307 | 65 | 200 | 1.7 | 5.2 | 0.00 | 0.26 | 0.25 | 63 | 1020.3 |
| 20260509023007 | 63 | 155 | 0.9 | 5.2 | 0.00 | 0.26 | 0.25 | 64 | 1020.2 |
| 20260509022706 | 63 | 139 | 0.0 | 5.2 | 0.00 | 0.26 | 0.25 | 62 | 1020.2 |
| 20260509022406 | 62 | 114 | 0.9 | 6.1 | 0.00 | 0.26 | 0.25 | 61 | 1020.2 |
| 20260509022107 | 62 | 86 | 0.9 | 7.0 | 0.00 | 0.26 | 0.25 | 65 | 1020.4 |
| 20260509021806 | 62 | 353 | 1.7 | 7.0 | 0.00 | 0.26 | 0.25 | 63 | 1020.2 |
| 20260509021506 | 64 | 317 | 0.9 | 7.0 | 0.00 | 0.26 | 0.25 | 64 | 1020.3 |
| 20260509021207 | 63 | 303 | 0.9 | 3.5 | 0.00 | 0.26 | 0.25 | 69 | 1020.2 |
| 20260509020906 | 63 | 248 | 1.7 | 3.5 | 0.00 | 0.26 | 0.25 | 66 | 1020.2 |
| 20260509020606 | 63 | 111 | 1.7 | 5.2 | 0.00 | 0.26 | 0.25 | 64 | 1020.1 |
| 20260509020307 | 62 | 101 | 1.7 | 6.1 | 0.00 | 0.27 | 0.25 | 67 | 1020.2 |
| 20260509015406 | 62 | 76 | 3.5 | 6.1 | 0.00 | 0.31 | 0.25 | 66 | 1020.2 |
| 20260509014807 | 61 | 74 | 1.7 | 6.1 | 0.00 | 0.31 | 0.25 | 66 | 1020.5 |
| 20260509014506 | 61 | 73 | 1.7 | 6.1 | 0.00 | 0.31 | 0.25 | 69 | 1020.4 |
| 20260509013906 | 60 | 88 | 2.6 | 5.2 | 0.00 | 0.31 | 0.25 | 65 | 1020.6 |
| 20260509013607 | 60 | 102 | 1.7 | 5.2 | 0.00 | 0.31 | 0.25 | 68 | 1020.5 |
| 20260509013308 | 60 | 120 | 2.6 | 5.2 | 0.00 | 0.31 | 0.25 | 66 | 1020.2 |
| 20260509013007 | 60 | 130 | 3.5 | 5.2 | 0.00 | 0.31 | 0.25 | 70 | 1020.2 |
| 20260509012706 | 60 | 146 | 3.5 | 6.1 | 0.00 | 0.31 | 0.25 | 72 | 1020.6 |
| 20260509012406 | 60 | 147 | 2.6 | 6.1 | 0.00 | 0.31 | 0.25 | 71 | 1020.5 |
| 20260509012107 | 60 | 151 | 3.5 | 7.0 | 0.00 | 0.31 | 0.25 | 74 | 1020.5 |
| 20260509011506 | 58 | 160 | 3.5 | 7.0 | 0.00 | 0.31 | 0.25 | 76 | 1020.6 |
| 20260509011207 | 57 | 157 | 4.3 | 7.0 | 0.00 | 0.31 | 0.25 | 78 | 1020.5 |
| 20260509010908 | 57 | 158 | 3.5 | 7.0 | 0.00 | 0.31 | 0.25 | 79 | 1020.6 |
| 20260509010606 | 58 | 142 | 3.5 | 7.0 | 0.00 | 0.31 | 0.25 | 78 | 1020.3 |
| 20260509010306 | 59 | 124 | 2.6 | 3.5 | 0.00 | 0.31 | 0.25 | 74 | 1020.5 |
| 20260509010007 | 60 | 7 | 1.7 | 3.5 | 0.00 | 0.31 | 0.25 | 71 | 1020.3 |
| 20260509005708 | 61 | 333 | 0.9 | 3.5 | 0.00 | 0.31 | 0.25 | 69 | 1020.3 |
| 20260509005107 | 61 | 2 | 0.9 | 3.5 | 0.00 | 0.31 | 0.25 | 68 | 1020.1 |
| 20260509004806 | 60 | 48 | 0.9 | 3.5 | 0.00 | 0.31 | 0.25 | 67 | 1020.2 |
| 20260509004506 | 60 | 73 | 0.9 | 3.5 | 0.00 | 0.31 | 0.25 | 70 | 1020.1 |
| 20260509004207 | 59 | 71 | 0.9 | 3.5 | 0.00 | 0.31 | 0.25 | 71 | 1020.3 |
| 20260509003607 | 59 | 83 | 1.7 | 3.5 | 0.00 | 0.31 | 0.25 | 71 | 1020.3 |
| 20260509003007 | 59 | 57 | 0.9 | 3.5 | 0.00 | 0.31 | 0.25 | 69 | 1020.3 |
| 20260509002706 | 59 | 83 | 0.0 | 3.5 | 0.00 | 0.31 | 0.25 | 69 | 1020.2 |
| 20260509001807 | 59 | 105 | 0.9 | 3.5 | 0.00 | 0.31 | 0.25 | 69 | 1020.3 |
| 20260509001507 | 59 | 90 | 1.7 | 3.5 | 0.00 | 0.31 | 0.25 | 70 | 1020.2 |
| 20260509001206 | 58 | 37 | 0.0 | 3.5 | 0.00 | 0.31 | 0.25 | 72 | 1020.1 |
| 20260509000906 | 57 | 82 | 0.9 | 3.5 | 0.00 | 0.31 | 0.25 | 73 | 1020.2 |
| 20260509000607 | 57 | 84 | 0.9 | 3.5 | 0.00 | 0.31 | 0.25 | 72 | 1020.2 |
| 20260509000006 | 57 | 82 | 1.7 | 3.5 | 0.00 | 0.31 | 0.25 | 74 | 1020.1 |
| 20260508235706 | 56 | 84 | 1.7 | 3.5 | 0.00 | 0.31 | 0.25 | 74 | 1019.9 |
| 20260508235407 | 56 | 90 | 1.7 | 5.2 | 0.00 | 0.31 | 0.25 | 75 | 1020.1 |
| 20260508235107 | 56 | 93 | 1.7 | 5.2 | 0.00 | 0.31 | 0.25 | 76 | 1020.1 |
| 20260508234807 | 56 | 94 | 1.7 | 5.2 | 0.00 | 0.31 | 0.25 | 76 | 1020.2 |
| 20260508234507 | 56 | 90 | 3.5 | 5.2 | 0.00 | 0.31 | 0.25 | 75 | 1020.0 |
| 20260508234206 | 56 | 84 | 1.7 | 3.5 | 0.00 | 0.31 | 0.25 | 74 | 1020.1 |
| 20260508233907 | 56 | 72 | 3.5 | 3.5 | 0.00 | 0.31 | 0.25 | 73 | 1019.9 |
| 20260508233607 | 57 | 74 | 2.6 | 6.1 | 0.00 | 0.31 | 0.25 | 74 | 1020.0 |
| 20260508233007 | 57 | 92 | 2.6 | 6.1 | 0.00 | 0.31 | 0.25 | 72 | 1019.9 |
| 20260508232706 | 57 | 88 | 1.7 | 5.2 | 0.00 | 0.31 | 0.25 | 74 | 1020.0 |
| 20260508232407 | 57 | 91 | 1.7 | 5.2 | 0.00 | 0.31 | 0.25 | 75 | 1020.1 |
| 20260508232106 | 57 | 74 | 2.6 | 3.5 | 0.00 | 0.31 | 0.25 | 74 | 1020.0 |
| 20260508231807 | 56 | 70 | 2.6 | 5.2 | 0.00 | 0.31 | 0.25 | 76 | 1020.1 |
| 20260508231507 | 56 | 69 | 1.7 | 5.2 | 0.00 | 0.31 | 0.25 | 76 | 1020.0 |
| 20260508231207 | 56 | 73 | 1.7 | 5.2 | 0.00 | 0.31 | 0.25 | 77 | 1019.9 |
| 20260508230606 | 55 | 88 | 1.7 | 3.5 | 0.00 | 0.31 | 0.25 | 80 | 1020.1 |
| 20260508230007 | 56 | 85 | 0.9 | 3.5 | 0.00 | 0.31 | 0.25 | 79 | 1019.9 |
| 20260508225706 | 55 | 77 | 1.7 | 3.5 | 0.00 | 0.31 | 0.25 | 80 | 1020.1 |
| 20260508225407 | 55 | 76 | 1.7 | 3.5 | 0.00 | 0.31 | 0.25 | 83 | 1020.0 |
| 20260508225106 | 54 | 70 | 0.9 | 3.5 | 0.00 | 0.31 | 0.25 | 82 | 1020.0 |
| 20260508224507 | 54 | 67 | 1.7 | 3.5 | 0.00 | 0.31 | 0.25 | 83 | 1019.9 |
| 20260508224207 | 54 | 64 | 1.7 | 3.5 | 0.00 | 0.31 | 0.25 | 83 | 1019.9 |
| 20260508223906 | 54 | 66 | 0.9 | 3.5 | 0.00 | 0.31 | 0.25 | 85 | 1020.1 |
| 20260508223606 | 53 | 68 | 0.9 | 5.2 | 0.00 | 0.31 | 0.25 | 86 | 1020.0 |
| 20260508223306 | 53 | 79 | 0.9 | 5.2 | 0.00 | 0.31 | 0.25 | 86 | 1020.0 |
| 20260508223007 | 53 | 83 | 1.7 | 5.2 | 0.00 | 0.31 | 0.25 | 87 | 1019.9 |
| 20260508222707 | 53 | 82 | 1.7 | 5.2 | 0.00 | 0.31 | 0.25 | 88 | 1020.0 |
| 20260508222106 | 52 | 84 | 3.5 | 3.5 | 0.00 | 0.31 | 0.25 | 90 | 1020.1 |
| 20260508221807 | 52 | 87 | 1.7 | 3.5 | 0.00 | 0.31 | 0.25 | 91 | 1020.0 |
| 20260508221506 | 52 | 88 | 1.7 | 1.7 | 0.00 | 0.31 | 0.25 | 91 | 1020.1 |
| 20260508221207 | 52 | 84 | 1.7 | 1.7 | 0.00 | 0.31 | 0.25 | 91 | 1020.0 |
| 20260508220907 | 52 | 84 | 0.0 | 1.7 | 0.00 | 0.31 | 0.25 | 92 | 1020.0 |
| 20260508220606 | 52 | 86 | 0.9 | 1.7 | 0.00 | 0.31 | 0.25 | 92 | 1020.0 |
| 20260508220306 | 52 | 86 | 1.7 | 1.7 | 0.00 | 0.31 | 0.25 | 92 | 1019.7 |
| 20260508220008 | 52 | 87 | 1.7 | 1.7 | 0.00 | 0.31 | 0.25 | 92 | 1019.8 |
| 20260508215706 | 52 | 87 | 1.7 | 1.7 | 0.00 | 0.31 | 0.25 | 92 | 1019.8 |
| 20260508215406 | 52 | 88 | 1.7 | 1.7 | 0.00 | 0.31 | 0.25 | 91 | 1019.7 |
| 20260508215106 | 52 | 86 | 0.0 | 1.7 | 0.00 | 0.31 | 0.25 | 91 | 1019.9 |
| 20260508214206 | 52 | 94 | 0.0 | 1.7 | 0.00 | 0.31 | 0.25 | 89 | 1019.9 |
| 20260508213606 | 51 | 112 | 0.0 | 1.7 | 0.00 | 0.31 | 0.25 | 88 | 1019.8 |
| 20260508213306 | 52 | 118 | 0.9 | 1.7 | 0.01 | 0.31 | 0.25 | 89 | 1019.8 |
| 20260508213006 | 52 | 118 | 0.9 | 1.7 | 0.01 | 0.31 | 0.25 | 89 | 1019.9 |
| 20260508212707 | 52 | 116 | 0.9 | 1.7 | 0.01 | 0.31 | 0.25 | 89 | 1019.9 |
| 20260508212408 | 51 | 97 | 1.7 | 1.7 | 0.01 | 0.31 | 0.25 | 89 | 1020.0 |
| 20260508212106 | 51 | 98 | 0.0 | 1.7 | 0.01 | 0.31 | 0.25 | 89 | 1019.7 |
| 20260508211806 | 51 | 107 | 0.9 | 3.5 | 0.02 | 0.31 | 0.25 | 89 | 1019.7 |
| 20260508211507 | 52 | 111 | 0.9 | 3.5 | 0.02 | 0.31 | 0.25 | 90 | 1019.7 |
| 20260508211206 | 52 | 118 | 1.7 | 3.5 | 0.04 | 0.31 | 0.25 | 90 | 1019.7 |
| 20260508210906 | 52 | 119 | 1.7 | 3.5 | 0.04 | 0.31 | 0.25 | 89 | 1019.4 |
| 20260508210606 | 51 | 122 | 1.7 | 3.5 | 0.07 | 0.31 | 0.25 | 90 | 1019.5 |
| 20260508210007 | 51 | 143 | 1.7 | 6.1 | 0.09 | 0.31 | 0.25 | 90 | 1019.4 |
| 20260508205706 | 51 | 142 | 2.6 | 9.6 | 0.09 | 0.31 | 0.25 | 90 | 1019.2 |
| 20260508205406 | 51 | 148 | 2.6 | 9.6 | 0.09 | 0.31 | 0.25 | 91 | 1019.5 |
| 20260508205107 | 51 | 148 | 4.3 | 9.6 | 0.09 | 0.31 | 0.25 | 91 | 1019.3 |
| 20260508204807 | 51 | 149 | 2.6 | 7.8 | 0.09 | 0.31 | 0.25 | 92 | 1019.0 |
| 20260508204507 | 51 | 146 | 4.3 | 7.8 | 0.09 | 0.31 | 0.25 | 92 | 1019.0 |
| 20260508204206 | 51 | 152 | 4.3 | 7.8 | 0.09 | 0.31 | 0.25 | 93 | 1018.6 |
| 20260508203907 | 51 | 156 | 4.3 | 9.6 | 0.09 | 0.31 | 0.25 | 93 | 1018.7 |
| 20260508203306 | 51 | 155 | 6.1 | 9.6 | 0.09 | 0.30 | 0.24 | 94 | 1018.6 |
| 20260508203006 | 51 | 147 | 6.1 | 9.6 | 0.09 | 0.30 | 0.24 | 95 | 1018.5 |
| 20260508202707 | 51 | 144 | 3.5 | 7.8 | 0.11 | 0.30 | 0.24 | 96 | 1018.2 |
| 20260508202407 | 51 | 138 | 3.5 | 7.8 | 0.11 | 0.30 | 0.24 | 96 | 1018.1 |
| 20260508201806 | 51 | 151 | 3.5 | 7.0 | 0.09 | 0.28 | 0.22 | 97 | 1018.1 |
| 20260508201506 | 51 | 161 | 3.5 | 7.0 | 0.09 | 0.28 | 0.22 | 95 | 1017.9 |
| 20260508201207 | 51 | 161 | 3.5 | 7.8 | 0.08 | 0.27 | 0.21 | 95 | 1018.1 |
| 20260508200906 | 51 | 154 | 3.5 | 9.6 | 0.09 | 0.27 | 0.21 | 95 | 1017.9 |
| 20260508200606 | 51 | 153 | 3.5 | 11.3 | 0.06 | 0.24 | 0.18 | 94 | 1017.8 |
| 20260508200306 | 51 | 151 | 5.2 | 11.3 | 0.05 | 0.22 | 0.17 | 92 | 1017.6 |
| 20260508195706 | 51 | 143 | 6.1 | 11.3 | 0.05 | 0.21 | 0.15 | 91 | 1017.2 |
| 20260508195106 | 51 | 123 | 6.1 | 9.6 | 0.06 | 0.21 | 0.15 | 90 | 1017.0 |
| 20260508194806 | 51 | 114 | 5.2 | 9.6 | 0.06 | 0.21 | 0.15 | 90 | 1017.2 |
| 20260508193907 | 51 | 118 | 6.1 | 9.6 | 0.06 | 0.21 | 0.15 | 90 | 1016.8 |
| 20260508193606 | 51 | 127 | 5.2 | 9.6 | 0.07 | 0.21 | 0.15 | 90 | 1017.0 |
| 20260508193306 | 51 | 130 | 5.2 | 7.8 | 0.06 | 0.20 | 0.14 | 90 | 1016.9 |
| 20260508193007 | 51 | 128 | 3.5 | 7.8 | 0.05 | 0.19 | 0.13 | 89 | 1016.7 |
| 20260508192706 | 51 | 126 | 1.7 | 9.6 | 0.05 | 0.19 | 0.13 | 90 | 1016.4 |
| 20260508192407 | 51 | 116 | 5.2 | 9.6 | 0.05 | 0.19 | 0.13 | 90 | 1016.4 |
| 20260508192106 | 51 | 113 | 3.5 | 9.6 | 0.05 | 0.19 | 0.13 | 90 | 1016.4 |
| 20260508191806 | 51 | 111 | 6.1 | 9.6 | 0.05 | 0.19 | 0.13 | 90 | 1016.5 |
| 20260508191507 | 51 | 111 | 2.6 | 7.8 | 0.05 | 0.19 | 0.13 | 89 | 1016.3 |
| 20260508190907 | 51 | 123 | 3.5 | 7.8 | 0.04 | 0.18 | 0.12 | 89 | 1016.1 |
| 20260508190606 | 51 | 122 | 3.5 | 7.8 | 0.05 | 0.18 | 0.12 | 88 | 1016.0 |
| 20260508190306 | 51 | 119 | 4.3 | 7.8 | 0.05 | 0.18 | 0.12 | 89 | 1016.2 |
| 20260508190006 | 51 | 120 | 2.6 | 6.1 | 0.06 | 0.18 | 0.12 | 87 | 1016.2 |
| 20260508185706 | 51 | 121 | 3.5 | 9.6 | 0.07 | 0.17 | 0.11 | 86 | 1016.0 |
| 20260508185408 | 51 | 123 | 3.5 | 9.6 | 0.07 | 0.17 | 0.11 | 87 | 1015.8 |
| 20260508184506 | 52 | 115 | 1.7 | 7.8 | 0.07 | 0.15 | 0.09 | 86 | 1015.8 |
| 20260508184207 | 52 | 117 | 2.6 | 7.8 | 0.08 | 0.15 | 0.09 | 84 | 1015.6 |
| 20260508183907 | 52 | 119 | 3.5 | 7.8 | 0.09 | 0.15 | 0.09 | 84 | 1015.1 |
| 20260508183607 | 52 | 113 | 1.7 | 7.8 | 0.08 | 0.14 | 0.08 | 86 | 1015.4 |
| 20260508183306 | 51 | 110 | 4.3 | 6.1 | 0.08 | 0.14 | 0.08 | 83 | 1015.2 |
| 20260508183006 | 51 | 108 | 2.6 | 6.1 | 0.08 | 0.14 | 0.08 | 86 | 1015.4 |
| 20260508182706 | 51 | 101 | 2.6 | 5.2 | 0.08 | 0.14 | 0.08 | 87 | 1015.2 |
| 20260508182407 | 51 | 107 | 2.6 | 5.2 | 0.08 | 0.14 | 0.08 | 87 | 1015.4 |
| 20260508182108 | 51 | 113 | 2.6 | 5.2 | 0.08 | 0.14 | 0.08 | 87 | 1015.2 |
| 20260508181807 | 51 | 110 | 0.9 | 3.5 | 0.08 | 0.14 | 0.08 | 87 | 1015.0 |
| 20260508181506 | 51 | 107 | 1.7 | 3.5 | 0.08 | 0.14 | 0.08 | 87 | 1015.2 |
| 20260508181207 | 51 | 116 | 1.7 | 3.5 | 0.08 | 0.14 | 0.08 | 87 | 1014.9 |
| 20260508180606 | 52 | 127 | 2.6 | 3.5 | 0.07 | 0.13 | 0.07 | 86 | 1015.2 |
| 20260508180306 | 52 | 131 | 1.7 | 3.5 | 0.07 | 0.13 | 0.07 | 85 | 1015.2 |
| 20260508180006 | 52 | 138 | 1.7 | 3.5 | 0.05 | 0.11 | 0.05 | 85 | 1015.1 |
| 20260508175406 | 52 | 116 | 0.9 | 3.5 | 0.04 | 0.09 | 0.04 | 83 | 1014.9 |
| 20260508175107 | 52 | 116 | 1.7 | 5.2 | 0.04 | 0.09 | 0.04 | 80 | 1015.1 |
| 20260508174807 | 53 | 113 | 1.7 | 7.8 | 0.04 | 0.09 | 0.04 | 82 | 1014.9 |
| 20260508173907 | 54 | 118 | 3.5 | 13.9 | 0.00 | 0.06 | 0.00 | 73 | 1014.4 |
| 20260508173605 | 55 | 123 | 5.2 | 13.9 | 0.00 | 0.06 | 0.00 | 71 | 1014.2 |
| 20260508173306 | 56 | 116 | 4.3 | 13.9 | 0.00 | 0.06 | 0.00 | 70 | 1014.2 |
| 20260508173006 | 56 | 115 | 7.0 | 9.6 | 0.00 | 0.06 | 0.00 | 64 | 1014.1 |
| 20260508172706 | 56 | 115 | 3.5 | 7.8 | 0.00 | 0.06 | 0.00 | 63 | 1013.7 |
| 20260508172407 | 56 | 115 | 3.5 | 9.6 | 0.00 | 0.06 | 0.00 | 63 | 1014.2 |
| 20260508171807 | 57 | 131 | 3.5 | 11.3 | 0.00 | 0.06 | 0.00 | 61 | 1013.9 |
| 20260508171507 | 57 | 131 | 3.5 | 11.3 | 0.00 | 0.06 | 0.00 | 62 | 1014.0 |
| 20260508171207 | 56 | 120 | 5.2 | 11.3 | 0.00 | 0.06 | 0.00 | 62 | 1014.0 |
| 20260508170906 | 55 | 121 | 6.1 | 11.3 | 0.00 | 0.06 | 0.00 | 63 | 1014.2 |
| 20260508170606 | 57 | 134 | 3.5 | 11.3 | 0.00 | 0.06 | 0.00 | 64 | 1013.9 |
| 20260508170306 | 57 | 141 | 3.5 | 11.3 | 0.00 | 0.06 | 0.00 | 61 | 1013.9 |
| 20260508170007 | 57 | 146 | 7.0 | 9.6 | 0.00 | 0.06 | 0.00 | 61 | 1013.8 |
| 20260508165705 | 56 | 123 | 3.5 | 6.1 | 0.00 | 0.06 | 0.00 | 62 | 1013.7 |
| 20260508165106 | 56 | 101 | 2.6 | 7.0 | 0.00 | 0.06 | 0.00 | 60 | 1013.6 |
| 20260508164806 | 57 | 104 | 2.6 | 7.0 | 0.00 | 0.06 | 0.00 | 59 | 1013.6 |
| 20260508164206 | 57 | 108 | 3.5 | 7.0 | 0.00 | 0.06 | 0.00 | 61 | 1013.4 |
| 20260508163906 | 57 | 114 | 4.3 | 7.0 | 0.00 | 0.06 | 0.00 | 59 | 1013.7 |
| 20260508163606 | 56 | 113 | 2.6 | 6.1 | 0.00 | 0.06 | 0.00 | 60 | 1013.5 |
| 20260508163306 | 57 | 117 | 1.7 | 5.2 | 0.00 | 0.06 | 0.00 | 60 | 1013.5 |
| 20260508162706 | 56 | 118 | 3.5 | 6.1 | 0.00 | 0.06 | 0.00 | 60 | 1013.5 |
| 20260508162406 | 57 | 109 | 1.7 | 7.8 | 0.00 | 0.06 | 0.00 | 59 | 1013.2 |
| 20260508162107 | 57 | 116 | 2.6 | 7.8 | 0.00 | 0.06 | 0.00 | 58 | 1013.3 |
| 20260508161806 | 57 | 113 | 2.6 | 7.8 | 0.00 | 0.06 | 0.00 | 59 | 1013.4 |
| 20260508161507 | 56 | 109 | 5.2 | 7.8 | 0.00 | 0.06 | 0.00 | 57 | 1013.7 |
| 20260508161207 | 56 | 100 | 4.3 | 7.8 | 0.00 | 0.06 | 0.00 | 59 | 1013.7 |
| 20260508160906 | 54 | 99 | 3.5 | 6.1 | 0.00 | 0.06 | 0.00 | 64 | 1013.9 |
| 20260508160606 | 54 | 97 | 3.5 | 5.2 | 0.00 | 0.06 | 0.00 | 66 | 1013.9 |
| 20260508160306 | 54 | 103 | 2.6 | 6.1 | 0.00 | 0.06 | 0.00 | 64 | 1013.7 |
| 20260508160008 | 54 | 94 | 1.7 | 6.1 | 0.00 | 0.06 | 0.00 | 66 | 1014.0 |
| 20260508155706 | 54 | 103 | 2.6 | 7.0 | 0.00 | 0.06 | 0.00 | 65 | 1014.0 |
| 20260508155406 | 55 | 109 | 3.5 | 7.0 | 0.00 | 0.06 | 0.00 | 64 | 1013.8 |
| 20260508155106 | 55 | 110 | 3.5 | 7.0 | 0.00 | 0.06 | 0.00 | 62 | 1013.9 |
| 20260508154506 | 56 | 106 | 3.5 | 9.6 | 0.00 | 0.06 | 0.00 | 59 | 1013.8 |
| 20260508154206 | 55 | 108 | 2.6 | 9.6 | 0.00 | 0.06 | 0.00 | 60 | 1013.5 |
| 20260508153906 | 54 | 99 | 4.3 | 9.6 | 0.00 | 0.06 | 0.00 | 62 | 1013.6 |
| 20260508153606 | 54 | 96 | 1.7 | 9.6 | 0.00 | 0.06 | 0.00 | 64 | 1013.7 |
| 20260508153306 | 54 | 89 | 3.5 | 9.6 | 0.00 | 0.06 | 0.00 | 66 | 1013.8 |
| 20260508153006 | 54 | 83 | 6.1 | 9.6 | 0.00 | 0.06 | 0.00 | 64 | 1013.6 |
| 20260508152706 | 54 | 79 | 4.3 | 9.6 | 0.00 | 0.06 | 0.00 | 62 | 1013.6 |
| 20260508152406 | 54 | 89 | 5.2 | 9.6 | 0.00 | 0.06 | 0.00 | 63 | 1013.9 |
| 20260508152106 | 53 | 84 | 5.2 | 7.8 | 0.00 | 0.06 | 0.00 | 65 | 1013.7 |
| 20260508151806 | 53 | 92 | 3.5 | 7.8 | 0.00 | 0.06 | 0.00 | 67 | 1014.0 |